User: anonymous   Login
Location: South Tamworth Observatory
(43.8246°N, 71.3026°W)
Time: 16:36:33
(UTC-04:00)
Language:

Cosmos 2208 Rocket - Orbit

View from above orbital plane
View from above orbital plane
View from above satellite
View from above satellite

Ground track
Ground track

The orbit data is extracted from the following two-line orbital elements,

1 22081U 92053B   17088.85004670 +.00000088 +00000-0 +41242-4 0  9999
2 22081 074.0443 222.4377 0036506 212.5459 147.3442 14.33372992286994
Epoch (UTC): 29 March 2017 20:24:04
Eccentricity: 0.0036506
inclination: 74.0443°
perigee height: 754 km
apogee height: 806 km
right ascension of ascending node: 222.4377°
argument of perigee: 212.5459°
revolutions per day: 14.33372992
mean anomaly at epoch: 147.3442°
orbit number at epoch: 28699

The dashed part of the orbit path shows where the satellite is in the earth's shadow,  

DLR